GW3137 Weather Reports


time (UTC)temp
C
wind
direction
speed
KPH
gust
KPH
rain 1hr
cm
rain 24hr
cm
rain mn
cm
humidity
%
barometer
mb
20260506043704 16 199 1.6 3.2 0.00 0.00 0.00 77 1015.5
20260506043203 16 199 1.6 4.8 0.00 0.00 0.00 77 1015.5
20260506040703 16 199 1.6 4.8 0.00 0.00 0.00 76 1015.4
20260506040204 16 199 1.6 4.8 0.00 0.00 0.00 76 1015.4
20260506033704 17 231 0.0 0.0 0.00 0.00 0.00 74 1015.2
20260506033204 17 231 0.0 8.0 0.00 0.00 0.00 73 1015.1
20260506030704 17 138 1.6 4.8 0.00 0.00 0.00 70 1014.9
20260506030205 17 163 3.2 9.7 0.00 0.00 0.00 70 1014.9
20260506023703 18 211 3.2 4.8 0.00 0.00 0.00 68 1014.8
20260506020704 19 216 3.2 11.3 0.00 0.00 0.00 67 1014.9
20260506020204 19 258 4.8 12.9 0.00 0.00 0.00 65 1014.9
20260506013704 20 182 3.2 8.0 0.00 0.00 0.00 63 1014.7
20260506013205 20 251 3.2 14.5 0.00 0.00 0.00 63 1014.7
20260506003704 20 203 4.8 11.3 0.00 0.00 0.00 64 1014.9
20260506003204 20 276 3.2 12.9 0.00 0.00 0.00 64 1014.9
20260506000205 19 291 3.2 11.3 0.00 0.00 0.00 64 1015.2
20260505233704 18 173 1.6 4.8 0.00 0.00 0.00 66 1015.5
20260505233204 19 271 1.6 9.7 0.00 0.00 0.00 66 1015.5
20260505230704 17 291 4.8 11.3 0.00 0.00 0.00 70 1015.5
20260505230204 17 234 4.8 11.3 0.00 0.00 0.00 69 1015.6
20260505223704 17 170 3.2 9.7 0.00 0.00 0.00 71 1015.8
20260505223204 17 200 3.2 12.9 0.00 0.00 0.00 71 1015.9
20260505220704 17 149 3.2 11.3 0.00 0.00 0.00 71 1016.1
20260505220203 17 213 1.6 11.3 0.00 0.00 0.00 73 1016.1
20260505213704 16 174 3.2 8.0 0.00 0.00 0.00 73 1016.3
20260505213205 16 274 3.2 11.3 0.00 0.00 0.00 73 1016.2
20260505210703 16 257 1.6 4.8 0.00 0.00 0.00 74 1016.2
20260505210204 16 132 4.8 14.5 0.00 0.00 0.00 74 1016.2
20260505203705 16 159 3.2 9.7 0.00 0.00 0.00 75 1016.4
20260505203204 16 263 1.6 16.1 0.00 0.00 0.00 75 1016.3
20260505200704 15 239 4.8 11.3 0.00 0.00 0.00 77 1016.3
20260505200204 15 227 3.2 11.3 0.00 0.00 0.00 77 1016.3
20260505193704 15 242 3.2 8.0 0.00 0.00 0.00 78 1016.3
20260505193204 15 244 6.4 19.3 0.00 0.00 0.00 78 1016.3
20260505190704 15 207 3.2 8.0 0.00 0.00 0.00 78 1016.3
20260505183704 15 266 3.2 8.0 0.00 0.00 0.00 79 1016.2
20260505183204 15 196 3.2 9.7 0.00 0.00 0.00 79 1016.2
20260505180204 14 239 1.6 11.3 0.00 0.00 0.00 80 1016.1
20260505173705 14 217 3.2 4.8 0.00 0.00 0.00 80 1016.1
20260505173204 14 245 3.2 9.7 0.00 0.00 0.00 80 1016.0
20260505170704 14 182 4.8 12.9 0.00 0.00 0.00 80 1015.9
20260505170204 14 125 4.8 11.3 0.00 0.00 0.00 79 1015.9
20260505163704 14 198 3.2 9.7 0.00 0.00 0.00 81 1015.8
20260505163204 14 148 3.2 11.3 0.00 0.00 0.00 81 1015.8
20260505160203 13 103 3.2 16.1 0.00 0.00 0.00 81 1015.5
20260505153204 13 157 3.2 12.9 0.00 0.00 0.00 82 1015.6
20260505150203 13 179 1.6 9.7 0.00 0.00 0.00 82 1015.4
20260505130204 13 162 3.2 12.9 0.00 0.00 0.00 83 1014.2
20260505123703 13 175 4.8 12.9 0.00 0.00 0.00 83 1014.0
20260505120704 13 187 4.8 11.3 0.00 0.00 0.00 83 1013.9
20260505120204 13 158 4.8 14.5 0.00 0.00 0.00 83 1013.9
20260505113704 13 163 6.4 14.5 0.00 0.00 0.00 83 1013.9
20260505113204 13 161 3.2 14.5 0.00 0.00 0.00 83 1013.8
20260505110704 13 212 3.2 12.9 0.00 0.00 0.00 84 1013.7
20260505110203 13 163 6.4 11.3 0.00 0.00 0.00 84 1013.7
20260505100703 13 202 4.8 11.3 0.00 0.00 0.00 84 1013.3
20260505100204 13 193 3.2 14.5 0.00 0.00 0.00 84 1013.3
20260505093704 13 225 1.6 8.0 0.00 0.00 0.00 84 1013.1
20260505090704 13 167 3.2 4.8 0.00 0.00 0.00 84 1012.9
20260505090204 13 182 3.2 12.9 0.00 0.00 0.00 84 1012.9
20260505083703 13 175 3.2 4.8 0.00 0.00 0.00 84 1012.8
20260505083204 13 174 3.2 14.5 0.00 0.00 0.00 84 1012.8
20260505080704 13 155 1.6 4.8 0.00 0.00 0.00 83 1012.7
20260505080203 13 242 3.2 12.9 0.00 0.00 0.00 83 1012.7
20260505073704 13 172 3.2 11.3 0.00 0.00 0.00 82 1012.5
20260505073204 13 140 1.6 8.0 0.00 0.00 0.00 82 1012.4
20260505070204 14 163 1.6 11.3 0.00 0.00 0.00 82 1012.1
20260505063704 14 201 3.2 8.0 0.00 0.00 0.00 81 1011.8
20260505063203 14 161 3.2 16.1 0.00 0.00 0.00 80 1011.9
20260505060704 14 219 3.2 8.0 0.00 0.00 0.00 80 1011.6
20260505060204 14 191 3.2 14.5 0.00 0.00 0.00 80 1011.6
20260505053704 15 170 8.0 16.1 0.00 0.00 0.00 78 1011.4
20260505053205 15 198 3.2 14.5 0.00 0.00 0.00 78 1011.3
20260505050204 16 186 1.6 12.9 0.00 0.00 0.00 75 1011.1